Weather Roundup
Issued by NWS

Home | Current Version | Previous Version | Text Only | Print | Product List | Glossary On
Versions: 1 2 3 4 5 6 7 8 9 10 11 12 13 14 15 16 17 18 19 20 21 22 23 24 25 26 27 28 29 30 31 32 33 34 35 36 37 38 39 40 41 42 43 44 45 46 47 48 49 50
627
NZUS93 KARX 112210
HRRWXR

CURRENT HOURLY OBSERVATIONS ACROSS
MUCH OF THE UPPER MISSISSIPPI VALLEY
NATIONAL WEATHER SERVICE LA CROSSE WI
400 PM CST THU FEB 11 2016


...SOUTHEAST MINNESOTA...


CITY           SKY/WX    TMP DP  RH WIND       PRES   REMARKS
ROCHESTER      CLOUDY    12   2  64 SW12      30.22S WCI  -2
ROCHESTER/MAYO CLOUDY    15   2  56 SW7       30.23S WCI   5
WINONA         CLOUDY    19   0  42 SW6       30.27S WCI  11
AUSTIN         SUNNY     12   1  62 SW7       30.23S WCI   2
ALBERT LEA     CLOUDY    14   1  57 SW5       30.22S WCI   6
DODGE CENTER   CLOUDY    12   1  62 SW9       30.21S WCI   0
PRESTON        CLOUDY    13  -1  54 SW7       30.23S WCI   2
OWATONNA       CLOUDY    16   3  57 S13       30.21F WCI   2
FARIBAULT      CLOUDY    16   3  57 SW10      30.22F WCI   3
$$

...ELSEWHERE IN MINNESOTA...


CITY           SKY/WX    TMP DP  RH WIND       PRES   REMARKS
MINNEAPOLIS    CLOUDY    16  -1  47 SW8       30.24R WCI   5
INTNL FALLS    CLOUDY    12  -6  44 W13       30.12S WCI  -3
DULUTH         PTSUNNY   12  -6  44 W15       30.10F WCI  -4
RED WING       NOT AVBL
REDWOOD FALLS  FLURRIES  16   9  74 S8        30.20F WCI   5
MANKATO        CLOUDY    14   1  57 SW9       30.22F WCI   2
WORTHINGTON    CLOUDY    14   7  73 S10       30.16S WCI   1
FAIRMONT       CLOUDY    14   3  62 S9        30.21F WCI   2
$$

...SOUTHWEST WISCONSIN...


CITY           SKY/WX    TMP DP  RH WIND       PRES   REMARKS
LA CROSSE      CLOUDY    18   0  45 S9        30.25F WCI   7
PRAIRIE DU CHI CLOUDY    19  -3  37 W6        30.28S WCI  11
BOSCOBEL       CLOUDY    20   1  43 SW7       30.27F WCI  11
LONE ROCK      PTSUNNY   20  -3  36 W5        30.26F WCI  13
PLATTEVILLE    PTSUNNY   18  -1  43 CALM      30.25F
FORT MC COY    SUNNY     19  -4  37 W6        30.25S WCI  10
CAMP DOUGLAS   MOSUNNY   18  -2  41 SW8       30.22S WCI   7
VIROQUA        FAIR      17  -3  42 SW5       30.21F WCI  10
WIS DELLS      SUNNY     18  -6  35 SW9       30.23S WCI   6
$$

...ELSEWHERE IN WISCONSIN...


CITY           SKY/WX    TMP DP  RH WIND       PRES   REMARKS
MILWAUKEE      MOSUNNY   19  -2  39 W9        30.27R WCI   8
MADISON        MOSUNNY   18  -5  36 VRB5      30.25S WCI  11
GREEN BAY      SUNNY     17  -1  45 W12       30.21S WCI   4
EAU CLAIRE     CLOUDY    14  -3  47 SW3       30.21F
BLACK RVR FLS  FAIR      20  -6  30 SW6       30.23F WCI  12
MEDFORD        CLOUDY    11  -3  52 SW9       30.15S WCI  -1
WAUSAU         SUNNY     14  -5  42 W8        30.16F WCI   3
WIS RAPIDS     MOSUNNY   17  -6  35 W12       30.22S WCI   4
MARSHFIELD     PTSUNNY   15  -5  40 W6        30.17F WCI   6
RICE LAKE      CLOUDY    15  -4  44 SW6       30.21S WCI   6
$$

...NORTHEAST IOWA...


CITY           SKY/WX    TMP DP  RH WIND       PRES   REMARKS
WATERLOO       CLOUDY    16   4  59 S7        30.26F WCI   6
DUBUQUE        SUNNY     18  -2  41 CALM      30.25F
DECORAH        CLOUDY    14   0  52 VRB6      30.23S WCI   5
MASON CITY     PTSUNNY   12   3  67 SW9       30.26R WCI   0
CHARLES CITY   CLOUDY    14   1  57 S8        30.25S WCI   3
OELWEIN        SUNNY     14   1  57 S5        30.26S WCI   6
$$

...ELSEWHERE IN IOWA...


CITY           SKY/WX    TMP DP  RH WIND       PRES   REMARKS
DES MOINES     FLURRIES  21   1  41 SE8       30.25S WCI  11
IOWA CITY      MOSUNNY   22   5  48 VRB3      30.28F
FORT DODGE     CLOUDY    12   3  67 S5        30.25S WCI   4
MARSHALLTOWN   CLOUDY    18   6  59 S6        30.25R WCI  10
CEDAR RAPIDS   PTSUNNY   21   6  52 S6        30.25F WCI  13
$$

...NORTHERN ILLINOIS...


CITY           SKY/WX    TMP DP  RH WIND       PRES   REMARKS
CHICAGO-OHARE  MOSUNNY   21   1  41 NW8       30.27S WCI  11
CHICAGO-MIDWAY MOSUNNY   23  -2  33 CALM      30.28F
MOLINE         SUNNY     23   0  36 CALM      30.28F
ROCKFORD       MOSUNNY   21   4  47 W6        30.30S WCI  13
PEORIA         SUNNY     26   0  32 NW3       30.30F
$$

NOTE: "FAIR" INDICATES FEW OR NO CLOUDS BELOW 12,000 FEET WITH NO
SIGNIFICANT WEATHER AND/OR OBSTRUCTIONS TO VISIBILITY. WIND
SPEEDS ARE IN MILES-PER-HOUR.




USA.gov is the U.S. government's official web portal to all federal, state and local government web resources and services.